Location: Santa Cristina
(46.5667°N, 11.7167°E)
Time: 03:28:09
(UTC+00:00)

Cosmos 2221 Rocket - Pass Details

Date: 21 April 2021
Orbit: 621 x 647 km, 82.5° (Epoch: 10 May)

Event Time Altitude Azimuth Distance (km) Brightness Sun altitude
Exits shadow 02:07:25 20° 163° (SSE) 1,482 5.2 -19.6°
Maximum altitude 02:10:20 52° 94° (E) 799 4.3 -19.2°
Drops below altitude 10° 02:14:45 10° 18° (NNE) 2,049 7.1 -18.7°
Sets 02:17:03 0° 14° (NNE) 2,967 8.0 -18.4°
